timestamp,gas_concentrations,,corrected_fluxes_and_quality_flags,,,,,,,,,,storage_terms,,,turbulence,,,footprint,,
ISOdate,CO2_1_1_1,H2O_1_1_1,Tau_1_1_1,QcTau_1_1_1,H_1_1_1,QcH_1_1_1,LE_1_1_1, QcLE_1_1_1,Fc_1_1_1, QcFc_1_1_1,E_1_1_1, QcE_1_1_1,Sa_1_1_1,Sw_1_1_1,Sc_1_1_1,ustar_1_1_1,MO_length_1_1_1,ZL_1_1_1,Fetchmax_1_1_1,Fetch70_1_1_1,Fetch90_1_1_1
yyyymmddHHMM,[µmol+1mol_a-1],[mmol+1mol_a-1],[kg+1m-1s-2],[#],[W+1m-2],[#],[W+1m-2],[#],[µmol+1s-1m-2],[#],[mmol+1s-1m-2],[#],[W+1m-2],[W+1m-2],[µmol+1s-1m-2],[m+1s-1],[m],[#],[m],[m],[m]
201804300030,419.07888373166389,3.4745904381619352,0.46723873756662304,0,-40.100494462123585,0,10.919758220907902,1,0.25009962696896215,0,0.24547826825562397,1,-9999.,-9999.,-9999.,0.63612763807379924,539.48464721861740,4.00382107467961990E-002,107.42909558620876,196.41464948429908,294.26493636273085
201804300100,419.55891485322093,3.6137386354849101,0.23916377381254769,0,-59.504537616050875,0,4.9863528612875685,1,0.66093103800910091,0,0.11199689861301400,1,-20.520073955776112,4.8228792947929549,0.37369835932542472,0.45444643098651116,132.53922006205693,0.16297062854215186,98.755712109898184,180.55693825582298,270.50719528915016
201804300130,420.00740180418711,3.6912735355060096,0.25131357056370807,0,-64.883486280108883,0,0.84947332494916428,1,0.62270364680136625,0,1.90646164258892747E-002,1,-18.826773997726828,2.6971367850326637,0.35013367208461371,0.46519303996022665,130.37354945506189,0.16567777812511922,106.27482345787371,194.30427189748889,291.10320617654293
201804300200,420.41569421281275,3.7262732751460117,0.24479036794884651,0,-67.394465758194997,0,1.0227405675044883,0,1.2700754053187611,0,2.29338130092028719E-002,0,-20.153567743618193,1.2222227030438380,0.31971839374970085,0.45842590754778406,120.10894962182341,0.17983672380792640,102.75006326420296,187.85988609885311,281.44834192934206
201804300230,420.82273524346533,3.7492720401720252,0.36138629323365018,0,-82.576790296607101,0,3.9592483865915193,0,0.82274172137732826,0,8.87422539999961901E-002,0,-10.611902240056761,0.80486234509109744,0.31928093733826818,0.55653243280788334,175.39724703340858,0.12314902522891803,107.46678476434299,196.48355732227529,294.36817286067134
201804300300,421.11236182533065,3.7693024819638352,0.43968105318309969,0,-97.619145788357045,0,6.4353087046556166,0,1.3765557920114890,0,0.14419306835332868,0,-7.8560065877695919,0.70206022410254998,0.22745592665330924,0.61349798973348346,198.75152680754513,0.10867841040997733,111.87893068438134,204.55036724587259,306.45372409144835
201804300330,421.18985177689876,3.7621519748230865,0.32705370212476348,0,-85.948075312327148,0,7.4411973277372585,0,1.2677941459138742,0,0.16668966455511489,0,-6.0147824725010288,-0.25087745444918585,6.09026276022071530E-002,0.52891674183403825,144.63657702143257,0.14933981738795757,94.662759433482051,173.07371538303076,259.29596380396328
201804300400,421.19622869070736,3.7299710749806612,0.39386708370977369,0,-89.578991112022848,0,10.167398493414405,0,1.2594095038136226,0,0.22775145220189835,0,-0.80153521909785730,-1.1292227614149997,5.01237201288356766E-003,0.58040202979982847,183.36740034879580,0.11779629290109991,96.501974401767441,176.43638693258467,264.33385854417890
201804300430,421.07652358930994,3.6529575191530674,0.56215655206560555,0,-130.23080765565112,0,20.760478795509098,0,2.6540207351946572,0,0.46508066496449235,0,2.1822637261819313,-2.7009800955111709,-9.40497804590343378E-002,0.69353789496370810,215.18126883404503,0.10038048440293677,96.092663568226357,175.68803618587671,263.21269275824994
201804300500,421.00287371321190,3.6080464050717835,0.72149430234122447,0,-139.01198514542494,0,25.933511157373253,0,2.3612715427595852,0,0.58105272166500566,0,3.4849899137915417,-1.5739490022004305,-5.78313150835202336E-002,0.78592545918717294,293.34803921247772,7.36326721596209516E-002,101.58216851054623,185.72460200824133,278.24929726190015
201804300530,421.17758871587284,3.5832483596076647,0.44879685926137219,0,-97.212573683405722,0,16.263341532494231,0,1.6380859555678491,0,0.36427593930531255,0,-7.3600993404319262,-0.87038925277083035,0.13735579014106727,0.61947660251880798,205.42926408294034,0.10514568163608463,94.217200409137448,172.25909138276648,258.07550860763899
201804300600,421.18671433551879,3.5451004153894345,0.46593973389973553,0,-85.321229415915028,0,12.707230358889891,0,1.9658505705092635,0,0.28453305977301641,0,-7.6667236643884342,-1.3409535055157724,7.18268425680379866E-003,0.63082358253601267,247.15349875312825,8.73950808261685919E-002,94.531048895178685,172.83290651209055,258.93518823417321
201804300630,421.28846317525034,3.5466901679788294,0.58134113328427484,0,-107.93176600378771,0,17.957537357123059,0,2.6026552275490671,0,0.40203419745764313,0,-3.6248581807682578,5.59168548750769989E-002,8.01233092214662102E-002,0.70445978173621182,272.07649858140479,7.93894368408204210E-002,98.581064018104101,180.23762584287141,270.02880710820887
201804300700,421.35773224894143,3.5730235192096536,0.68741347664484487,0,-116.61671269791620,0,17.155020742165142,0,2.3988632627806821,0,0.38400989486374343,0,-3.5963820323381070,0.92691336261372237,5.45787467344804392E-002,0.76581607884904357,323.51510353550975,6.67665891451313248E-002,105.06775800716025,192.09737127980438,287.79686690130615
201804300730,421.30267157712098,3.5767184604329025,0.61078670802252499,0,-106.08343264584380,0,21.336100356562554,0,2.6275574019276462,0,0.47754075728573953,0,-3.0843979818676206,0.13010517357945742,-4.33934256691720088E-002,0.72179093931704708,297.70778870355906,7.25543664613628458E-002,101.57786082073665,185.71672617740225,278.23749783213890
201804300800,421.07891336158679,3.5121405533729164,0.53982075070418101,0,-111.90305712552515,0,18.954883032587105,0,2.4466558840013457,0,0.42418760882493650,0,-3.2385031545427156,-2.2749596694413139,-0.17640284913816323,0.67844403391406083,234.33967960881219,9.21738906362648547E-002,104.84278440846968,191.68604778974884,287.18062936024955
201804300830,420.79729442137574,3.4212856504968134,0.42566869181138628,0,-98.813291891157775,0,15.561646798653571,0,2.1879838273305614,0,0.34828543744913287,0,2.3719890285211411,-3.1985093303977439,-0.22189160698346724,0.60261705637484830,185.94569670427848,0.11616294640231381,95.382916832072738,174.39039279007648,261.26858648975491
201804300900,421.26619407682352,3.4206169884086512,0.55069612023762682,0,-91.718188824524589,0,15.043600269986717,0,1.5055352061885978,0,0.33661424031260145,0,-5.4817152655055708,-2.35591423428266472E-002,0.36966930338727294,0.68522671866181184,294.47039961007124,7.33520246130071607E-002,109.35621749817086,199.93804296337569,299.54362184074159
201804300930,422.11230953612710,3.4572983199926024,0.36165505039420032,0,-65.864646052786398,0,9.0522111127126834,0,1.0157423543289688,0,0.20235479688277813,0,-23.439440158468589,1.2981560899031104,0.66937622413041253,0.55433841401285766,217.07783831302055,9.95034784198162436E-002,104.59616198426961,191.23514334212317,286.50509233215814
201804301000,422.19480824698394,3.4653744964005093,0.51720298698985856,0,-123.08928017731888,0,20.412655880609588,0,3.2758771699081324,0,0.45616659286262495,0,-7.5036696813600940,0.28611678488909176,6.53143582900937159E-002,0.66267175356852348,198.37431468165420,0.10888506425170569,103.17669086315641,188.63989741563390,282.61694101855136
201804301030,422.33009235956007,3.4577432563376069,0.52466653045322298,0,-102.25463499504914,0,22.858946533276331,0,2.3195651727598552,0,0.51087540228214767,0,1.9362355467891377,-0.27016648192016018,0.10703897206037871,0.66763974801715731,244.14998733711960,8.84702073327366667E-002,99.135289267702134,181.25092636021395,271.54691593071789
201804301100,422.47974238904266,3.4479926838469264,0.52148077279082772,0,-115.10488497084890,0,24.981434621535140,0,2.7972718017707123,0,0.55811137844475389,0,-8.6471108767331106,-0.34575811469853696,0.11855573691632677,0.66518666651840330,214.49882524534834,0.10069985220335570,101.57348651130053,185.70872854463857,278.22551592089945
201804301130,422.78834990413947,3.4600468629354184,0.33205315785817729,0,-54.397088399145716,0,11.675106817708063,0,1.2179870052942325,0,0.26077172945512139,0,-5.7907994164011045,0.42795767343972391,0.24471991919961378,0.53054308193222455,230.29967422973789,9.37908404440585125E-002,99.375778249844572,181.69061691959726,272.20565251078420
201804301200,422.79895242054425,3.4995381582060445,0.22855944890366384,0,-45.842061670250814,1,8.8060158282449912,0,1.1931313934549026,0,0.19669850693721555,0,1.2241694274283776,1.4017262551146656,8.40605804170340212E-003,0.44020947026373941,156.10836994450727,0.13836541889251855,92.635210486987361,169.36670925526869,253.74219311961642
201804301230,422.13823004697201,3.6103025048378456,0.42164207641121965,0,-15.778336070498632,1,14.340011962086207,0,1.4182294521575181,1,0.32078232258121897,0,35.415763514755589,3.9034570489603628,-0.52086999711639337,0.59962181022987671,1146.1499662595966,1.88457013792798223E-002,99.741561691563362,182.35938571170445,273.20759002699037
201804301300,421.01398976802284,3.8932258586737687,0.66903309739286998,0,9.8225654860896885,2,15.089271761051808,0,0.82471302565228188,2,0.33813314889637286,0,41.677214598170956,9.8867207098968670,-0.88036360039675721,0.75789005938517129,-3717.3174089308304,-5.81064182146677748E-003,100.19475059790147,183.18795956967892,274.44894465216140
201804301330,420.51898231718525,4.2585946220182116,0.95298936102460463,0,125.08861796880061,1,56.153500499422648,1,-0.86044168443769831,1,1.2601927716883869,1,34.950895866366771,12.677682208784443,-0.38546090041886227,0.90713861163301845,-500.52044993046337,-4.31550798833511412E-002,106.21912339167694,194.20243441185622,290.95063506584563
201804301400,420.19635289787163,4.6443142365395511,0.97814617817286409,0,89.398459881188145,0,32.625418094186891,1,-1.2121489600151616,0,0.73288413007460373,1,22.751132378539541,13.321187204716887,-0.25029628613591121,0.92081484192539231,-732.45352241226624,-2.94899257619274588E-002,110.86838255900204,202.70276297488522,303.68567621593047
201804301430,419.64259056683937,5.1091343017862991,0.98126113231549872,0,108.37854503045484,0,-0.74070241954574723,2,-0.96291752928549545,0,-1.66555571125813172E-002,2,23.565468010814971,15.974337014484108,-0.42793399299715323,0.92416495627608919,-610.74810911655550,-3.53664623395139252E-002,108.31189591407818,198.02869003836807,296.68306322942340
201804301500,419.23087647807728,5.4798016284871238,0.77083353800283683,0,78.302740859530829,0,7.70999183511031916E-002,2,-1.6450801298441595,0,1.73521624506615588E-003,2,20.675744908013908,12.685249109364682,-0.31711012570855829,0.82051682880522392,-591.62146701047777,-3.65098313777337258E-002,98.966339391953397,180.94203210354607,271.08413604632614
201804301530,418.60577739183321,5.9652317158694341,1.2309003021536356,0,112.54177952608410,0,-11.258399849090992,1,-1.5646447621190820,0,-0.25357757743716347,1,17.926705131763125,16.547473060612180,-0.47994120287540126,1.0385948882544793,-834.65141581547357,-2.58790671059921547E-002,118.42687770632956,216.52210276258512,324.38956543131980
201804301600,418.35638881631502,6.4260828803316459,0.98089858474521785,0,140.33791242419676,0,-18.622995998787122,1,-1.1038350348449697,0,-0.41988422994354940,1,23.775974936000068,15.628549620957642,-0.19068413237469567,0.92914888564176146,-479.14015270959220,-4.50807553444426204E-002,106.71390349742143,195.10705024717822,292.30591442974577
201804301630,417.77869884423001,6.9016131583052029,1.0427400157591171,0,193.85901601960137,0,35.071963266415047,1,-2.5475971580040024,0,0.79151657112111951,1,22.286140678952663,16.047538699076465,-0.43997198106964092,0.95996262689738465,-382.43344065131731,-5.64804164698916727E-002,107.03295270109538,195.69037394701871,293.17983962760201
201804301700,417.46804018609492,7.2953336833264313,0.94308997448247811,0,136.30460863418099,0,11.629068930297453,1,-1.6640935792910723,0,0.26269600843461027,1,21.587574005361432,13.226011335167016,-0.23573975408536738,0.91467266058176100,-470.45071432334538,-4.59134173726731959E-002,117.45964970966799,214.75370150314018,321.74017809977079
201804301730,417.72724372963194,7.5564186624378431,0.77938491626327233,0,182.84227007123599,0,23.870646138094205,0,-1.2422100037056065,0,0.53958370219584217,0,15.061487983876816,8.7391218997573006,0.19611982362968208,0.83276225541233351,-264.58125411466563,-8.16384368283282758E-002,100.71994230678396,184.14817751482056,275.88752610860234
201804301800,417.40544382298839,7.9447278776322241,0.80670231339086951,0,212.50115971586607,0,3.0588062998240528,2,-1.3094604850915772,0,6.92102730193931426E-002,2,22.208795652815905,12.931808316733145,-0.24248566059962318,0.84903162883409566,-241.16854133145225,-8.95639202391403100E-002,94.704207917339005,173.14949643083719,259.40949762269219
201804301830,417.08141471882595,8.3142566397700968,1.0850258861017352,0,118.85570385347837,0,29.658944488009002,1,-1.7016262603529357,0,0.67126894860562736,1,6.3918492588308231,12.282803108395948,-0.24376656082732479,0.98553652030637162,-674.12245709435069,-3.20416561897400934E-002,106.42089260207457,194.57133287945220,291.50331219240650
201804301900,416.37280566597980,8.6359067797755937,1.4353782000819064,0,94.804318801360381,0,-0.44323330132138877,2,-0.78216438499498597,0,-1.00294373454053471E-002,2,-5.0551805146806315,10.696775746089198,-0.53323669702262466,1.1334457266640512,-1285.2261797003532,-1.68063803408019415E-002,112.28553063689867,205.29376163747796,307.56746435426743
201804301930,416.76752807381308,8.6919293242225226,1.1398777542032674,0,91.640345253114319,0,25.273722918264408,1,-1.7132739457252262,0,0.57192674768939289,1,1.4107878624171257,1.8614273633110170,0.29678792910243490,1.0104870477230214,-941.73231629636359,-2.29364540498602498E-002,96.093137331837639,175.68890237685730,263.21399047017957
201804302000,416.35229513754626,8.9581641571678787,1.8494165541949621,0,77.951975526923263,1,-31.777492403055032,2,0.48577034841152367,2,-0.71928766250260445,2,5.8310843185025147,8.8290232486264770,-0.31168978292473987,1.2882577272950535,-2292.9237146825085,-9.42028723488991596E-003,110.56427320067564,202.14675407715936,302.85267356905052
201804302030,415.38228856896586,9.3997146001623832,1.2637305171470405,0,69.483486711729611,0,23.877949240144513,2,-2.1798883975148540,1,0.54066863508607865,2,7.8660882432894681,14.607438765499392,-0.72661201754564719,1.0661061279503605,-1457.1320148424838,-1.48236397114196710E-002,94.544821837642431,172.85808784356897,258.97291445736727
201804302100,414.71527638598479,9.7676575565381025,1.3991009854231113,0,79.471496939437060,0,1.8717193015911180,0,-1.6579820840454573,0,4.23918799949182384E-002,0,5.6002595056724935,12.151215207687533,-0.49890165388473534,1.1226681913735368,-1487.1679117095064,-1.45242509806244417E-002,102.26019440695659,186.96424959214798,280.10651523595794
201804302130,414.01361067456918,9.9618945856603247,1.5554207773919004,0,162.42568632995966,1,29.891177104584084,1,-0.92262444489337803,1,0.67744550530634096,1,14.987039844123057,6.3933498253316454,-0.52342931709898899,1.1853416291125165,-856.28039544383432,-2.52253819133674215E-002,105.67322621472702,193.20436026741697,289.45533812455420
201804302200,414.33715013213413,10.118975436067029,0.88081494383638248,0,73.883074102260267,1,1.7225551781271085,2,-8.49070931304236609E-002,1,3.90483155818883640E-002,2,5.0612057347885493,5.1667927614392433,0.24124271853062859,0.89222684818936504,-803.03784952575313,-2.68978604342948804E-002,98.904451100730569,180.82888056893262,270.91461442856598
201804302230,412.57206227027274,10.204574397700835,1.3750618848171696,0,57.657090001926932,0,28.363885599491173,1,0.98598941768206139,0,0.64309696879910305,1,4.2164554355671253,2.8125637823229854,-1.3149551776576203,1.1153015299783209,-2009.6404067236306,-1.07481915310486051E-002,101.71713795857724,185.97136920553967,278.61899949032380
201804302300,412.96325771126578,9.7052403472465478,1.5924947055786576,0,-46.381213029408734,0,14.706942329567921,1,1.9981860348916936,0,0.33333597148661526,1,-7.8136330338009428,-16.437225913955626,0.29187098227714209,1.1992307681007310,3106.0565407491090,6.95415544328455149E-003,115.06837778565912,210.38169376898827,315.19011382989356
201804302330,413.73355535414890,9.4330327368202802,0.66595528965034445,0,-41.780491551898642,0,11.918660794353327,0,0.96814559822925128,0,0.26996110996430150,0,-14.851470443806441,-8.9893244575814855,0.57618123083443751,0.77448349443241438,928.86070875870041,2.32542939929772097E-002,96.097687340486928,175.69722124381903,263.22645364878423
201805010000,414.27503641722757,9.3592557839506370,0.48105513436321540,0,-43.951472630968325,0,9.8330563570147813,0,1.1096642986870369,0,0.22265573168096772,0,-6.6774623098862849,-2.4401297158813082,0.40552797938489410,0.65782817658100190,541.13321011132291,3.99162342957225108E-002,102.42480941793828,187.26521833348750,280.55742125416981
